Tracking 28125 objects as of 2-Oct-2023
HD Live streaming from Space Station
objects crossing your sky now

STARLINK-4279

Track STARLINK-4279 now!
10-day predictions
STARLINK-4279 is classified as:


NORAD ID: 53018
Int'l Code: 2022-076AJ
Perigee: 545.6 km
Apogee: 548.1 km
Inclination: 53.2 °
Period: 95.4 minutes
Semi major axis: 6917 km
RCS: Unknown
Launch date: July 7, 2022
Source: United States (US)
Launch site: AIR FORCE EASTERN TEST RANGE (AFETR)
Your satellite tracking list
Your tracking list is empty




NASA's NSSDC Master Catalog

Two Line Element Set (TLE):
1 53018U 22076AJ  23275.18185278  .00004318  00000-0  28915-3 0  9997
2 53018  53.2149 117.5327 0001768  72.9513 287.1672 15.08851697 69163
Source of the keplerian elements: AFSPC